Weather History for Yakima, WA

Change the Weather History Date:

Wednesday, May 7, 2014

  Actual Average Record
Temperature  
Mean Temperature 60 °F 55 °F  
Max Temperature 73 °F 70 °F 93 °F (1987)
Min Temperature 46 °F 39 °F 27 °F (2002)
Degree Days  
Heating Degree Days 5 11  
Month to date heating degree days 40 81  
Since 1 July heating degree days 5457 5763  
Cooling Degree Days 0 0  
Month to date cooling degree days 0 0  
Year to date cooling degree days 0 1  
Growing Degree Days 12 (Base 50)    
Moisture  
Dew Point 33 °F    
Average Humidity 38    
Maximum Humidity 56    
Minimum Humidity 20    
Precipitation  
Precipitation 0.00 in 0.01 in 0.24 in (1977)
Month to date precipitation T 0.12  
Year to date precipitation 2.79 3.21  
Snow  
Snow 0.00 in 0.00 in 0.00 in (2002)
Month to date snowfall 0.0 0.0  
Year to date snowfall 19.9 8.6  
Since 1 July snowfall 19.9 21.6  
Snow Depth 0.00 in    
Sea Level Pressure  
Sea Level Pressure 29.89 in    
Wind  
Wind Speed 5 mph (WNW)    
Max Wind Speed 14 mph    
Max Gust Speed 18 mph    
Visibility 10 miles    
Events      
T = Trace of Precipitation, MM = Missing Value Source: NWS Daily Summary

Daily Weather History Graph

Daily Weather History Graph

Search for Another Location

Airport:

Trip Planner

Search our weather history database for the weather conditions in past years. The results will help you decide how hot, cold, wet, or windy it might be!

Date:

Astronomy

May. 07, 2014 Rise Set
Actual Time 5:38 AM PDT 8:19 PM PDT
Civil Twilight 5:04 AM PDT 8:54 PM PDT
Nautical Twilight 4:20 AM PDT 9:38 PM PDT
Astronomical Twilight 3:30 AM PDT 10:29 PM PDT
Moon 1:04 PM PDT (5/7) 2:06 AM PDT (5/7)
Length of Visible Light 15h 50m
Length of Day
14h 41m
First Quarter, 56% of the Moon is Illuminated
May 7
First Quarter
May 14
Full
May 21
Last Quarter
May 28
New
Jun 5
First Quarter

Hourly Weather History & Observations

Time (PDT) Temp. Dew Point Humidity Pressure Visibility Wind Dir Wind Speed Gust Speed Precip Events Conditions
12:53 AM 51.1 °F 35.1 °F 54% 29.93 in 10.0 mi WNW 9.2 mph - N/A   Scattered Clouds
1:53 AM 51.1 °F 35.1 °F 54% 29.93 in 10.0 mi North - - N/A   Unknown
2:53 AM 50.0 °F 35.1 °F 57% 29.93 in 10.0 mi NNW 4.6 mph - N/A   Mostly Cloudy
3:53 AM 51.1 °F 35.1 °F 54% 29.94 in 10.0 mi NW 3.5 mph - N/A   Mostly Cloudy
4:53 AM 51.8 °F 35.6 °F 54% 29.94 in 10.0 mi NW 6.9 mph - N/A   Overcast
5:53 AM 51.1 °F 35.1 °F 54% 29.95 in 10.0 mi NW 6.9 mph - N/A   Overcast
6:53 AM 52.0 °F 36.0 °F 54% 29.95 in 10.0 mi North 5.8 mph - N/A   Overcast
7:53 AM 54.0 °F 36.0 °F 51% 29.97 in 10.0 mi NNW 10.4 mph - N/A   Overcast
8:53 AM 57.9 °F 36.0 °F 44% 29.97 in 10.0 mi NNW 9.2 mph - N/A   Scattered Clouds
9:53 AM 62.6 °F 35.6 °F 37% 29.95 in 10.0 mi Variable 4.6 mph - N/A   Clear
10:53 AM 64.0 °F 32.0 °F 30% 29.94 in 10.0 mi Variable 3.5 mph - N/A   Clear
11:53 AM 66.9 °F 28.9 °F 24% 29.93 in 10.0 mi Calm Calm - N/A   Clear
12:53 PM 70.0 °F 27.0 °F 20% 29.90 in 10.0 mi North - - N/A   Clear
1:53 PM 70.0 °F 27.0 °F 20% 29.88 in 10.0 mi Variable 4.6 mph - N/A   Clear
2:53 PM 72.0 °F 28.0 °F 20% 29.87 in 10.0 mi North - - N/A   Scattered Clouds
3:53 PM 71.1 °F 28.0 °F 20% 29.84 in 10.0 mi Calm Calm - N/A   Clear
4:53 PM 71.1 °F 30.0 °F 22% 29.83 in 10.0 mi SE 8.1 mph - N/A   Partly Cloudy
5:30 PM 72.0 °F 30.9 °F 22% 29.83 in 10.0 mi South 8.1 mph - N/A   Clear
5:53 PM 71.1 °F 30.9 °F 23% 29.82 in 10.0 mi SW 6.9 mph - N/A   Clear
6:53 PM 70.0 °F 32.0 °F 25% 29.81 in 10.0 mi SSW 8.1 mph - N/A   Clear
7:53 PM 66.0 °F 36.0 °F 33% 29.81 in 10.0 mi South 4.6 mph - N/A   Mostly Cloudy
8:53 PM 64.9 °F 36.0 °F 34% 29.82 in 10.0 mi West 5.8 mph - N/A   Overcast
9:53 PM 61.0 °F 37.0 °F 41% 29.84 in 10.0 mi West 5.8 mph - N/A   Mostly Cloudy
10:53 PM 59.0 °F 36.0 °F 42% 29.83 in 10.0 mi NW 5.8 mph - N/A   Clear
11:53 PM 57.0 °F 37.0 °F 47% 29.83 in 10.0 mi West 6.9 mph - N/A   Clear